GLO1206 SBSP-SBLO

Flight info

Callsign GLO1206
Flight time 0h 45m
Altitude 30000
Route ASETA UM415 EGEVA UZ58 UMPIG DCT
Aircraft B737/M-SDFGIKLORWXY/LB1

Departure

Time 2026-05-08 18:13
Airport Congonhas–Deputado Freitas Nobre Airport (SBSP)

Arrival

Time 2026-05-08 18:58
Airport Governor José Richa Airport (SBLO)
Time Latitude Longitude Altitude Speed Heading
2026-05-08 18:01 -23.62883 -46.65708 2600 ft 0 kts 327°
2026-05-08 18:06 -23.62904 -46.65694 2600 ft 4 kts 336°
2026-05-08 18:06 -23.62925 -46.65691 2600 ft 3 kts 51°
2026-05-08 18:06 -23.62927 -46.65694 2600 ft 0 kts 57°
2026-05-08 18:09 -23.62906 -46.65659 2600 ft 10 kts 58°
2026-05-08 18:09 -23.62902 -46.65594 2602 ft 10 kts 139°
2026-05-08 18:10 -23.62957 -46.65554 2602 ft 10 kts 147°
2026-05-08 18:10 -23.62995 -46.65528 2603 ft 10 kts 153°
2026-05-08 18:10 -23.63076 -46.65507 2601 ft 14 kts 151°
2026-05-08 18:10 -23.63165 -46.65445 2601 ft 15 kts 147°
2026-05-08 18:11 -23.63281 -46.65365 2601 ft 15 kts 147°
2026-05-08 18:11 -23.63338 -46.65325 2601 ft 14 kts 147°
2026-05-08 18:11 -23.63412 -46.65261 2601 ft 13 kts 123°
2026-05-08 18:11 -23.63419 -46.65143 2601 ft 9 kts 134°
2026-05-08 18:12 -23.63413 -46.65128 2601 ft 1 kts 343°
2026-05-08 18:12 -23.63411 -46.65131 2601 ft 0 kts 326°
2026-05-08 18:12 -23.63261 -46.65236 2609 ft 70 kts 328°
2026-05-08 18:12 -23.62599 -46.65696 2610 ft 153 kts 328°
2026-05-08 18:13 -23.61627 -46.66362 3474 ft 169 kts 326°
2026-05-08 18:13 -23.60735 -46.67210 4552 ft 185 kts 299°
2026-05-08 18:13 -23.60382 -46.68667 5236 ft 210 kts 281°
2026-05-08 18:13 -23.60237 -46.70305 6163 ft 220 kts 281°
2026-05-08 18:14 -23.60088 -46.71994 7071 ft 227 kts 281°
2026-05-08 18:14 -23.59937 -46.73711 7677 ft 229 kts 280°
2026-05-08 18:14 -23.59842 -46.75419 8322 ft 236 kts 272°
2026-05-08 18:14 -23.60037 -46.77332 8675 ft 269 kts 266°
2026-05-08 18:15 -23.60349 -46.79388 9517 ft 279 kts 265°
2026-05-08 18:15 -23.60659 -46.81486 10472 ft 285 kts 266°
2026-05-08 18:15 -23.60966 -46.83715 10823 ft 312 kts 266°
2026-05-08 18:15 -23.61253 -46.85879 11040 ft 335 kts 266°
2026-05-08 18:16 -23.61493 -46.88452 11650 ft 345 kts 270°
2026-05-08 18:16 -23.61589 -46.91081 12438 ft 349 kts 272°
2026-05-08 18:16 -23.61643 -46.93746 13219 ft 354 kts 272°
2026-05-08 18:16 -23.61695 -46.96422 13866 ft 361 kts 272°
2026-05-08 18:17 -23.61758 -46.99170 14513 ft 364 kts 271°
2026-05-08 18:17 -23.61831 -47.01932 14860 ft 364 kts 271°
2026-05-08 18:17 -23.61910 -47.04709 15004 ft 371 kts 271°
2026-05-08 18:17 -23.61994 -47.07555 15562 ft 376 kts 271°
2026-05-08 18:18 -23.62081 -47.10404 16406 ft 374 kts 271°
2026-05-08 18:18 -23.62167 -47.13241 17135 ft 377 kts 270°
2026-05-08 18:18 -23.62254 -47.16124 17699 ft 383 kts 271°
2026-05-08 18:18 -23.62339 -47.19000 18374 ft 385 kts 270°
2026-05-08 18:19 -23.62390 -47.21913 19051 ft 383 kts 275°
2026-05-08 18:19 -23.61872 -47.24750 19594 ft 384 kts 291°
2026-05-08 18:19 -23.60857 -47.27454 20173 ft 385 kts 294°
2026-05-08 18:19 -23.59778 -47.30132 20820 ft 386 kts 294°
2026-05-08 18:20 -23.58695 -47.32806 21459 ft 386 kts 294°
2026-05-08 18:20 -23.57624 -47.35487 22095 ft 386 kts 294°
2026-05-08 18:20 -23.56561 -47.38180 22688 ft 388 kts 293°
2026-05-08 18:20 -23.55503 -47.40888 23277 ft 389 kts 293°
2026-05-08 18:21 -23.54461 -47.43564 23794 ft 390 kts 293°
2026-05-08 18:21 -23.53398 -47.46291 24217 ft 392 kts 293°
2026-05-08 18:21 -23.52361 -47.49045 24636 ft 394 kts 290°
2026-05-08 18:21 -23.51498 -47.51883 25075 ft 396 kts 288°
2026-05-08 18:22 -23.50720 -47.54765 25506 ft 397 kts 287°
2026-05-08 18:22 -23.49952 -47.57664 25920 ft 399 kts 287°
2026-05-08 18:22 -23.49167 -47.60569 26331 ft 401 kts 288°
2026-05-08 18:22 -23.48361 -47.63481 26731 ft 403 kts 288°
2026-05-08 18:23 -23.47539 -47.66408 27139 ft 404 kts 288°
2026-05-08 18:23 -23.46725 -47.69291 27697 ft 402 kts 288°
2026-05-08 18:23 -23.45907 -47.72189 28306 ft 399 kts 288°
2026-05-08 18:23 -23.45094 -47.75069 28895 ft 397 kts 288°
2026-05-08 18:24 -23.44191 -47.77898 29485 ft 394 kts 295°
2026-05-08 18:24 -23.42957 -47.80556 30085 ft 392 kts 298°
2026-05-08 18:24 -23.41652 -47.83150 30601 ft 390 kts 298°
2026-05-08 18:24 -23.40337 -47.85730 31103 ft 389 kts 298°
2026-05-08 18:25 -23.39034 -47.88310 31596 ft 388 kts 297°
2026-05-08 18:25 -23.37765 -47.90853 32114 ft 386 kts 297°
2026-05-08 18:25 -23.36497 -47.93418 32621 ft 384 kts 297°
2026-05-08 18:25 -23.35238 -47.95978 33092 ft 383 kts 297°
2026-05-08 18:26 -23.33985 -47.98531 33607 ft 381 kts 296°
2026-05-08 18:26 -23.32737 -48.01076 33918 ft 384 kts 296°
2026-05-08 18:26 -23.30174 -48.06299 33924 ft 398 kts 296°
2026-05-08 18:27 -23.28072 -48.10822 33920 ft 408 kts 290°
2026-05-08 18:27 -23.25957 -48.17714 33937 ft 418 kts 287°
2026-05-08 18:28 -23.24156 -48.23732 33923 ft 417 kts 288°
2026-05-08 18:28 -23.22298 -48.29698 33918 ft 416 kts 288°
2026-05-08 18:29 -23.20430 -48.35647 33921 ft 416 kts 288°
2026-05-08 18:29 -23.18574 -48.41544 33923 ft 415 kts 288°
2026-05-08 18:30 -23.16710 -48.47469 33918 ft 414 kts 288°
2026-05-08 18:30 -23.14931 -48.53414 33918 ft 414 kts 283°
2026-05-08 18:31 -23.14273 -48.59620 33922 ft 416 kts 271°
2026-05-08 18:31 -23.14754 -48.65896 33911 ft 417 kts 267°
2026-05-08 18:32 -23.15332 -48.72121 33919 ft 416 kts 267°
2026-05-08 18:32 -23.15889 -48.78386 33920 ft 417 kts 267°
2026-05-08 18:33 -23.16427 -48.84661 33915 ft 417 kts 267°
2026-05-08 18:33 -23.16959 -48.90942 33906 ft 418 kts 267°
2026-05-08 18:34 -23.17486 -48.97187 33908 ft 418 kts 267°
2026-05-08 18:34 -23.18015 -49.03474 33917 ft 418 kts 268°
2026-05-08 18:35 -23.18542 -49.09781 33908 ft 418 kts 268°
2026-05-08 18:35 -23.19067 -49.16077 33911 ft 418 kts 267°
2026-05-08 18:36 -23.19626 -49.22325 33913 ft 418 kts 267°
2026-05-08 18:36 -23.20210 -49.28626 33915 ft 419 kts 267°
2026-05-08 18:37 -23.20785 -49.34927 33909 ft 419 kts 267°
2026-05-08 18:37 -23.21340 -49.41234 33902 ft 419 kts 268°
2026-05-08 18:38 -23.21809 -49.47507 33907 ft 419 kts 268°
2026-05-08 18:38 -23.22270 -49.53834 33908 ft 420 kts 268°
2026-05-08 18:39 -23.22739 -49.60159 33913 ft 420 kts 268°
2026-05-08 18:39 -23.23209 -49.66479 33887 ft 411 kts 268°
2026-05-08 18:40 -23.23436 -49.69504 33886 ft 393 kts 268°
2026-05-08 18:40 -23.23649 -49.72367 33746 ft 380 kts 269°
2026-05-08 18:40 -23.23862 -49.75248 32676 ft 385 kts 269°
2026-05-08 18:40 -23.24087 -49.78184 31279 ft 396 kts 269°
2026-05-08 18:41 -23.24324 -49.81206 29933 ft 405 kts 269°
2026-05-08 18:41 -23.24568 -49.84274 28440 ft 411 kts 268°
2026-05-08 18:41 -23.24815 -49.87375 27190 ft 412 kts 268°
2026-05-08 18:41 -23.25062 -49.90460 26172 ft 407 kts 268°
2026-05-08 18:42 -23.25303 -49.93497 25273 ft 401 kts 268°
2026-05-08 18:42 -23.25537 -49.96454 24524 ft 393 kts 268°
2026-05-08 18:42 -23.25767 -49.99385 23817 ft 385 kts 268°
2026-05-08 18:42 -23.25992 -50.02255 23065 ft 378 kts 268°
2026-05-08 18:43 -23.26211 -50.05070 22363 ft 369 kts 269°
2026-05-08 18:43 -23.26424 -50.07822 21692 ft 363 kts 269°
2026-05-08 18:43 -23.26634 -50.10562 21065 ft 365 kts 269°
2026-05-08 18:43 -23.26844 -50.13322 20418 ft 368 kts 269°
2026-05-08 18:44 -23.27057 -50.16116 19777 ft 373 kts 268°
2026-05-08 18:44 -23.27269 -50.18898 19105 ft 374 kts 268°
2026-05-08 18:44 -23.27485 -50.21704 18438 ft 371 kts 268°
2026-05-08 18:44 -23.27699 -50.24491 17706 ft 369 kts 268°
2026-05-08 18:45 -23.27910 -50.27253 17009 ft 365 kts 268°
2026-05-08 18:45 -23.28118 -50.29989 16329 ft 361 kts 268°
2026-05-08 18:45 -23.28324 -50.32692 15691 ft 357 kts 269°
2026-05-08 18:45 -23.28527 -50.35370 15054 ft 354 kts 269°
2026-05-08 18:46 -23.28738 -50.38025 14403 ft 352 kts 267°
2026-05-08 18:46 -23.29212 -50.40647 13789 ft 354 kts 258°
2026-05-08 18:46 -23.29923 -50.43152 13186 ft 351 kts 257°
2026-05-08 18:46 -23.30661 -50.45682 12498 ft 349 kts 257°
2026-05-08 18:47 -23.31391 -50.48181 11836 ft 342 kts 257°
2026-05-08 18:47 -23.32104 -50.50635 10934 ft 339 kts 257°
2026-05-08 18:47 -23.32803 -50.53062 10452 ft 326 kts 258°
2026-05-08 18:47 -23.33458 -50.55329 10320 ft 304 kts 258°
2026-05-08 18:48 -23.34069 -50.57455 10190 ft 285 kts 258°
2026-05-08 18:48 -23.34639 -50.59447 10059 ft 267 kts 259°
2026-05-08 18:48 -23.35165 -50.61295 9967 ft 254 kts 259°
2026-05-08 18:48 -23.35680 -50.63117 9781 ft 253 kts 259°
2026-05-08 18:49 -23.36201 -50.64983 9448 ft 262 kts 258°
2026-05-08 18:49 -23.36738 -50.66893 9092 ft 265 kts 259°
2026-05-08 18:49 -23.37275 -50.68791 8738 ft 260 kts 259°
2026-05-08 18:49 -23.37803 -50.70650 8382 ft 254 kts 260°
2026-05-08 18:50 -23.38319 -50.72467 8049 ft 249 kts 260°
2026-05-08 18:50 -23.38822 -50.74244 7709 ft 242 kts 260°
2026-05-08 18:50 -23.39311 -50.75977 7416 ft 239 kts 260°
2026-05-08 18:50 -23.39794 -50.77694 7127 ft 244 kts 260°
2026-05-08 18:51 -23.40296 -50.79475 6807 ft 246 kts 260°
2026-05-08 18:51 -23.40800 -50.81263 6491 ft 249 kts 260°
2026-05-08 18:51 -23.41314 -50.83084 6159 ft 251 kts 260°
2026-05-08 18:51 -23.41811 -50.84829 6059 ft 231 kts 260°
2026-05-08 18:52 -23.42070 -50.86441 5885 ft 203 kts 281°
2026-05-08 18:52 -23.41807 -50.87848 5772 ft 180 kts 294°
2026-05-08 18:52 -23.41401 -50.89077 5586 ft 168 kts 296°
2026-05-08 18:52 -23.41001 -50.90250 5516 ft 165 kts 296°
2026-05-08 18:53 -23.40603 -50.91414 5456 ft 168 kts 297°
2026-05-08 18:53 -23.40183 -50.92629 5376 ft 175 kts 296°
2026-05-08 18:53 -23.39759 -50.93881 5162 ft 175 kts 295°
2026-05-08 18:53 -23.39359 -50.95085 4945 ft 163 kts 296°
2026-05-08 18:54 -23.38983 -50.96206 4739 ft 154 kts 297°
2026-05-08 18:54 -23.38628 -50.97265 4567 ft 150 kts 295°
2026-05-08 18:54 -23.38264 -50.98343 4357 ft 152 kts 295°
2026-05-08 18:54 -23.37903 -50.99415 4162 ft 149 kts 295°
2026-05-08 18:55 -23.37189 -51.01553 3793 ft 153 kts 294°
2026-05-08 18:55 -23.36825 -51.02640 3571 ft 151 kts 292°
2026-05-08 18:55 -23.36483 -51.03671 3435 ft 137 kts 294°
2026-05-08 18:56 -23.36171 -51.04605 3262 ft 126 kts 294°
2026-05-08 18:56 -23.35864 -51.05517 3093 ft 129 kts 293°
2026-05-08 18:56 -23.35557 -51.06435 2910 ft 127 kts 292°
2026-05-08 18:56 -23.35257 -51.07332 2767 ft 130 kts 292°
2026-05-08 18:57 -23.34946 -51.08268 2581 ft 130 kts 293°
2026-05-08 18:57 -23.34736 -51.08895 2469 ft 135 kts 291°
2026-05-08 18:57 -23.34301 -51.10199 2209 ft 139 kts 290°
2026-05-08 18:57 -23.33968 -51.11167 2052 ft 136 kts 288°
2026-05-08 18:58 -23.33650 -51.12139 1904 ft 136 kts 289°
2026-05-08 18:58 -23.33360 -51.13006 1877 ft 85 kts 290°
2026-05-08 18:58 -23.33226 -51.13407 1879 ft 21 kts 291°
2026-05-08 18:58 -23.33180 -51.13539 1880 ft 17 kts 290°
2026-05-08 18:59 -23.33142 -51.13655 1877 ft 16 kts 289°
2026-05-08 18:59 -23.33077 -51.13704 1878 ft 11 kts 18°
2026-05-08 18:59 -23.33025 -51.13703 1876 ft 5 kts 297°
2026-05-08 18:59 -23.33013 -51.13739 1877 ft 2 kts 291°
2026-05-08 19:00 -23.33006 -51.13749 1877 ft 2 kts 324°
2026-05-08 19:00 -23.32995 -51.13747 1877 ft 4 kts 13°
2026-05-08 19:00 -23.32952 -51.13729 1877 ft 3 kts 22°
2026-05-08 19:00 -23.32948 -51.13727 1877 ft 1 kts 22°
2026-05-08 19:01 -23.32947 -51.13726 1877 ft 0 kts 22°